DH0GMA Weather Reports


Display with metric or nautical units.
time (UTC)temp
F
wind
direction
speed
MPH
gust
MPH
rain 1hr
in
rain 24hr
in
rain mn
in
humidity
%
barometer
mb
20260508112627 63 56 3.0 4.0 0.00 0.00 0.00 65 1016.2
20260508111627 64 60 2.0 7.0 0.00 0.00 0.00 65 1016.3
20260508110627 62 18 2.0 3.0 0.00 0.00 0.00 69 1016.4
20260508105627 62 3 4.0 6.0 0.00 0.00 0.00 69 1016.5
20260508104629 61 20 1.0 4.0 0.00 0.00 0.00 70 1016.5
20260508103629 61 55 1.0 5.0 0.00 0.00 0.00 70 1016.7
20260508102628 60 2 1.0 6.0 0.00 0.00 0.00 74 1016.7
20260508101628 60 22 1.0 6.0 0.00 0.00 0.00 74 1016.9
20260508100628 60 60 1.0 7.0 0.00 0.00 0.00 74 1016.8
20260508095628 60 67 3.0 7.0 0.00 0.01 0.00 73 1016.9
20260508094628 59 61 1.0 5.0 0.00 0.01 0.00 75 1017.0
20260508093628 59 42 2.0 6.0 0.00 0.01 0.00 74 1017.0
20260508092628 59 51 2.0 4.0 0.00 0.01 0.00 76 1017.1
20260508091628 58 77 2.0 5.0 0.00 0.01 0.00 76 1017.1
20260508090628 57 329 2.0 4.0 0.00 0.01 0.00 78 1017.1
20260508085627 57 31 2.0 4.0 0.00 0.01 0.00 78 1017.1
20260508084627 57 33 2.0 5.0 0.00 0.01 0.00 78 1017.1
20260508083627 55 16 2.0 5.0 0.00 0.01 0.00 83 1016.9
20260508082627 54 65 2.0 9.0 0.00 0.01 0.00 85 1017.1
20260508081627 53 14 1.0 3.0 0.00 0.01 0.00 90 1017.1
20260508080629 51 31 1.0 4.0 0.00 0.01 0.00 91 1017.1
20260508075629 49 46 1.0 4.0 0.00 0.01 0.00 94 1017.2
20260508074628 48 34 0.0 5.0 0.00 0.01 0.00 95 1017.3
20260508073627 47 35 3.0 6.0 0.00 0.01 0.00 95 1017.3
20260508072628 47 45 1.0 4.0 0.00 0.01 0.00 96 1017.3
20260508071628 46 45 1.0 3.0 0.00 0.01 0.00 96 1017.4
20260508070628 46 55 3.0 5.0 0.00 0.01 0.00 96 1017.2
20260508065628 46 32 1.0 5.0 0.00 0.02 0.00 96 1017.2
20260508064628 45 37 2.0 4.0 0.00 0.02 0.00 96 1017.2
20260508063628 45 51 0.0 3.0 0.00 0.02 0.00 96 1017.1
20260508062627 45 67 2.0 5.0 0.00 0.02 0.00 95 1017.1
20260508061627 44 71 1.0 4.0 0.00 0.02 0.00 96 1016.9
20260508060627 44 16 1.0 3.0 0.00 0.02 0.00 96 1016.8
20260508055627 44 63 0.0 2.0 0.00 0.03 0.00 96 1016.8
20260508054627 44 62 0.0 2.0 0.00 0.03 0.00 95 1016.7
20260508053627 43 65 1.0 4.0 0.00 0.03 0.00 95 1016.7
20260508052627 43 37 0.0 1.0 0.00 0.03 0.00 95 1016.6
20260508051627 43 38 0.0 3.0 0.00 0.03 0.00 95 1016.8
20260508050627 43 41 2.0 2.0 0.00 0.03 0.00 95 1016.7
20260508045628 42 41 1.0 4.0 0.00 0.03 0.00 95 1016.6
20260508044628 42 20 2.0 5.0 0.00 0.03 0.00 95 1016.4
20260508043628 42 41 2.0 4.0 0.00 0.03 0.00 95 1016.3
20260508042628 42 29 1.0 3.0 0.00 0.03 0.00 94 1016.1
20260508041628 42 29 0.0 3.0 0.00 0.03 0.00 94 1016.1
20260508040628 42 30 1.0 4.0 0.00 0.03 0.00 94 1016.1
20260508035628 42 37 0.0 2.0 0.00 0.03 0.00 94 1016.0
20260508034628 42 37 0.0 1.0 0.00 0.03 0.00 94 1016.0
20260508033627 42 37 0.0 0.0 0.00 0.03 0.00 94 1015.9
20260508032627 42 37 0.0 4.0 0.00 0.03 0.00 94 1015.8
20260508031627 43 43 1.0 4.0 0.00 0.03 0.00 94 1015.8
20260508030628 43 38 1.0 3.0 0.00 0.03 0.00 94 1016.1
20260508025628 43 38 0.0 1.0 0.00 0.03 0.00 94 1015.9
20260508024628 43 38 0.0 3.0 0.00 0.03 0.00 93 1015.9
20260508023628 43 37 1.0 2.0 0.00 0.03 0.00 94 1015.9
20260508022628 43 37 1.0 2.0 0.00 0.03 0.00 94 1015.9
20260508021628 43 37 0.0 1.0 0.00 0.03 0.00 93 1016.0
20260508020627 43 37 1.0 2.0 0.00 0.03 0.00 93 1016.1
20260508015628 43 37 0.0 1.0 0.00 0.03 0.00 93 1016.1
20260508014628 44 37 0.0 2.0 0.00 0.03 0.00 93 1016.2
20260508013628 44 37 1.0 2.0 0.00 0.03 0.00 92 1016.1
20260508012628 44 35 1.0 4.0 0.00 0.03 0.00 93 1015.9
20260508011628 44 35 2.0 3.0 0.00 0.03 0.00 92 1015.9
20260508010628 44 41 0.0 2.0 0.00 0.03 0.00 92 1016.0
20260508005628 44 41 0.0 2.0 0.00 0.03 0.00 92 1016.1
20260508004628 45 41 0.0 2.0 0.00 0.03 0.00 91 1016.2
20260508003627 45 41 0.0 2.0 0.00 0.03 0.00 91 1016.3
20260508002627 45 41 0.0 2.0 0.00 0.03 0.00 91 1016.1
20260508001627 45 41 0.0 1.0 0.00 0.03 0.00 90 1016.1
20260508000627 45 41 0.0 0.0 0.00 0.03 0.00 90 1016.2
20260507235627 45 41 0.0 0.0 0.00 0.03 0.00 89 1016.3
20260507234627 46 41 0.0 1.0 0.00 0.03 0.00 89 1016.4
20260507233627 46 41 0.0 1.0 0.00 0.03 0.00 89 1016.4
20260507232627 46 41 0.0 0.0 0.00 0.03 0.00 89 1016.5
20260507231627 47 41 0.0 0.0 0.00 0.03 0.00 88 1016.6
20260507230627 47 41 0.0 1.0 0.00 0.03 0.00 88 1016.5
20260507225627 47 41 0.0 1.0 0.00 0.03 0.00 88 1016.6
20260507224626 47 41 0.0 1.0 0.00 0.03 0.00 88 1016.6
20260507223628 47 41 0.0 0.0 0.00 0.03 0.00 88 1016.7
20260507222628 47 41 0.0 0.0 0.00 0.03 0.00 88 1016.7
20260507221628 47 41 0.0 0.0 0.00 0.03 0.00 87 1016.9
20260507220628 47 41 0.0 0.0 0.00 0.03 0.00 87 1016.9
20260507215628 48 41 0.0 0.0 0.00 0.03 0.03 86 1016.8
20260507214628 48 41 0.0 0.0 0.00 0.03 0.03 86 1016.6
20260507213627 49 41 0.0 1.0 0.00 0.03 0.03 86 1016.6
20260507212627 49 41 1.0 4.0 0.00 0.03 0.03 85 1016.5
20260507211627 49 42 1.0 2.0 0.00 0.03 0.03 86 1016.4
20260507210627 49 39 2.0 5.0 0.00 0.03 0.03 86 1016.7
20260507205627 49 56 1.0 3.0 0.00 0.03 0.03 86 1016.7
20260507204627 49 46 3.0 5.0 0.00 0.03 0.03 86 1016.7
20260507203627 49 32 0.0 2.0 0.00 0.03 0.03 86 1016.5
20260507202627 49 32 1.0 4.0 0.00 0.03 0.03 86 1016.6
20260507201627 49 31 0.0 1.0 0.00 0.03 0.03 86 1016.5
20260507200627 49 31 0.0 3.0 0.00 0.03 0.03 86 1016.5
20260507195627 50 39 1.0 4.0 0.00 0.03 0.03 86 1016.3
20260507194627 50 35 2.0 4.0 0.00 0.03 0.03 85 1016.1
20260507193627 50 27 0.0 3.0 0.00 0.03 0.03 85 1016.0
20260507192627 50 27 0.0 2.0 0.00 0.03 0.03 84 1015.9
20260507191627 51 28 2.0 5.0 0.00 0.03 0.03 84 1015.7
20260507190627 51 18 1.0 2.0 0.00 0.03 0.03 83 1015.6
20260507185627 51 16 0.0 2.0 0.00 0.03 0.03 83 1015.6
20260507184626 52 16 0.0 2.0 0.00 0.03 0.03 82 1015.3
20260507183626 52 16 1.0 3.0 0.00 0.03 0.03 81 1015.4
20260507182628 53 57 2.0 5.0 0.00 0.03 0.03 81 1015.2
20260507181628 53 54 1.0 3.0 0.00 0.03 0.03 80 1015.3
20260507180628 54 56 1.0 3.0 0.00 0.03 0.03 79 1015.2
20260507175627 54 54 0.0 3.0 0.00 0.03 0.03 79 1014.9
20260507174628 55 45 0.0 3.0 0.00 0.03 0.03 79 1015.0
20260507173627 55 45 1.0 4.0 0.00 0.03 0.03 77 1015.0
20260507172626 55 24 0.0 2.0 0.00 0.03 0.03 77 1015.0
20260507171628 56 51 2.0 3.0 0.00 0.03 0.03 77 1014.8
20260507170628 56 57 1.0 4.0 0.00 0.03 0.03 78 1014.9
20260507165628 56 43 1.0 2.0 0.00 0.03 0.03 77 1015.0
20260507164628 56 43 1.0 4.0 0.00 0.03 0.03 76 1014.8
20260507163628 56 41 2.0 4.0 0.00 0.03 0.03 76 1014.8
20260507162627 56 45 2.0 4.0 0.00 0.03 0.03 77 1014.8
20260507161627 57 8 2.0 4.0 0.00 0.03 0.03 76 1014.8
20260507160626 57 47 2.0 5.0 0.00 0.03 0.03 74 1014.8
20260507155626 58 351 0.0 2.0 0.00 0.05 0.03 74 1014.8
20260507154628 59 349 0.0 3.0 0.00 0.05 0.03 73 1014.7
20260507153628 60 14 1.0 5.0 0.00 0.05 0.03 71 1014.6
20260507152628 60 54 2.0 4.0 0.00 0.05 0.03 71 1014.7
20260507151628 60 318 1.0 3.0 0.00 0.05 0.03 70 1014.5
20260507150627 59 200 1.0 5.0 0.00 0.05 0.03 69 1014.5
20260507145626 59 282 1.0 2.0 0.00 0.24 0.03 70 1014.4
20260507144626 59 275 1.0 2.0 0.00 0.24 0.03 70 1014.4
20260507143626 60 302 2.0 3.0 0.00 0.24 0.03 70 1014.5
20260507142626 60 326 2.0 5.0 0.00 0.24 0.03 71 1014.5
20260507141626 60 242 2.0 4.0 0.00 0.24 0.03 70 1014.5
20260507140628 60 328 2.0 7.0 0.00 0.24 0.03 72 1014.5
20260507135628 58 227 1.0 6.0 0.00 0.24 0.03 73 1014.4
20260507134628 57 292 1.0 4.0 0.00 0.24 0.03 73 1014.5
20260507133628 57 5 0.0 8.0 0.00 0.24 0.03 79 1014.5
20260507132628 56 176 2.0 5.0 0.00 0.24 0.03 81 1014.6
20260507131629 55 198 1.0 6.0 0.00 0.24 0.03 81 1014.7
20260507130627 55 161 3.0 7.0 0.00 0.24 0.03 80 1014.6
20260507125627 54 254 1.0 6.0 0.00 0.24 0.03 81 1014.6
20260507124627 54 255 1.0 4.0 0.00 0.24 0.03 84 1014.6
20260507123627 54 143 1.0 4.0 0.00 0.24 0.03 86 1014.6
20260507122627 53 249 0.0 3.0 0.00 0.24 0.03 86 1014.6
20260507121627 53 176 2.0 6.0 0.00 0.24 0.03 85 1014.4
20260507120627 54 178 1.0 4.0 0.00 0.24 0.03 86 1014.4
20260507115627 53 267 1.0 3.0 0.00 0.24 0.03 87 1014.4
20260507114627 53 163 1.0 4.0 0.01 0.24 0.03 86 1014.5
20260507113626 52 260 0.0 4.0 0.01 0.24 0.03 88 1014.3